User: anonymous   Login
Location: Unspecified
(0.0000°N, 0.0000°E)
Time: 19:07:37
(UTC+00:00)
Language:

STARLINK-2377 - Orbit

View from above orbital plane
View from above orbital plane
View from above satellite
View from above satellite

Ground track
Ground track

The orbit is defined by the following mean orbital elements,

1 47797U          26145.33711836 +.00000000 +00000-0 +42961-4 0 00003
2 47797  53.1593 258.8926 0001050  79.7082 280.4038 15.31701668    04
Epoch (UTC): 25 May 2026 08:05:27
Eccentricity: 0.0001050
inclination: 53.1593°
perigee height: 470 km
apogee height: 471 km
right ascension of ascending node: 258.8926°
argument of perigee: 79.7082°
revolutions per day: 15.31701668
mean anomaly at epoch: 280.4038°

The dashed part of the orbit path shows where the satellite is in the earth's shadow,  

DLR